Stündliche Wetter Labiszynek

Heute, 14 Mai, Freitag

Zeit Temperatur Niederschläge Wind Luftdruck Luftfeuchtigkeit
00:00 +14°C° 0 mm 1 m/S 740 mmHg 74%
01:00 +14°C° 0 mm 1 m/S 740 mmHg 76%
02:00 +14°C° 0 mm 1 m/S 740 mmHg 78%
03:00 +14°C° 0 mm 1 m/S 740 mmHg 79%
04:00 +14°C° 0 mm 2 m/S 740 mmHg 81%
05:00 +14°C° 0.1 mm 2 m/S 740 mmHg 83%
06:00 +14°C° 0.1 mm 2 m/S 740 mmHg 85%
07:00 +14°C° 0.1 mm 2 m/S 741 mmHg 86%
08:00 +13°C° 0.1 mm 3 m/S 741 mmHg 85%
09:00 +14°C° 0.1 mm 3 m/S 741 mmHg 85%
10:00 +14°C° 0.1 mm 4 m/S 742 mmHg 84%
11:00 +14°C° 0.1 mm 4 m/S 742 mmHg 84%
12:00 +14°C° 0.1 mm 5 m/S 742 mmHg 84%
13:00 +14°C° 0.1 mm 5 m/S 742 mmHg 84%
14:00 +14°C° 0.1 mm 5 m/S 743 mmHg 84%
15:00 +14°C° 0.1 mm 6 m/S 743 mmHg 84%
16:00 +13°C° 0.1 mm 6 m/S 743 mmHg 84%
17:00 +13°C° 0 mm 5 m/S 743 mmHg 85%
18:00 +12°C° 0 mm 5 m/S 744 mmHg 87%
19:00 +11°C° 0 mm 4 m/S 744 mmHg 88%
20:00 +11°C° 0 mm 4 m/S 744 mmHg 88%
21:00 +11°C° 0 mm 4 m/S 744 mmHg 87%
22:00 +11°C° 0 mm 4 m/S 744 mmHg 87%
23:00 +10°C° 0 mm 4 m/S 745 mmHg 88%

Morgen, 15 Mai, Samstag

Zeit Temperatur Niederschläge Wind Luftdruck Luftfeuchtigkeit
00:00 +10°C° 0 mm 4 m/S 745 mmHg 89%
01:00 +10°C° 0 mm 4 m/S 745 mmHg 90%
02:00 +10°C° 0 mm 4 m/S 745 mmHg 91%
03:00 +10°C° 0 mm 4 m/S 745 mmHg 91%
04:00 +10°C° 0 mm 4 m/S 745 mmHg 92%
05:00 +10°C° 0 mm 4 m/S 746 mmHg 89%
06:00 +11°C° 0 mm 4 m/S 746 mmHg 86%
07:00 +11°C° 0 mm 4 m/S 746 mmHg 84%
08:00 +12°C° 0 mm 3 m/S 746 mmHg 77%
09:00 +14°C° 0 mm 3 m/S 747 mmHg 70%
10:00 +16°C° 0 mm 3 m/S 747 mmHg 64%
11:00 +17°C° 0 mm 3 m/S 746 mmHg 61%
12:00 +18°C° 0 mm 2 m/S 746 mmHg 58%
13:00 +19°C° 0 mm 2 m/S 746 mmHg 55%
14:00 +18°C° 0.3 mm 2 m/S 746 mmHg 58%
15:00 +18°C° 0.3 mm 2 m/S 746 mmHg 61%
16:00 +18°C° 0.3 mm 3 m/S 745 mmHg 63%
17:00 +17°C° 0.3 mm 3 m/S 745 mmHg 69%
18:00 +16°C° 0.3 mm 3 m/S 745 mmHg 75%
19:00 +15°C° 0.3 mm 2 m/S 745 mmHg 80%
20:00 +13°C° 0.5 mm 3 m/S 745 mmHg 84%
21:00 +12°C° 0.5 mm 3 m/S 745 mmHg 88%
22:00 +12°C° 0.5 mm 3 m/S 745 mmHg 92%
23:00 +11°C° 0.1 mm 3 m/S 745 mmHg 92%

übermorgen, 16 Mai, Sonntag

Zeit Temperatur Niederschläge Wind Luftdruck Luftfeuchtigkeit
00:00 +11°C° 0.1 mm 3 m/S 745 mmHg 92%
01:00 +10°C° 0.1 mm 2 m/S 745 mmHg 92%
02:00 +10°C° 0.1 mm 2 m/S 744 mmHg 94%
03:00 +10°C° 0.1 mm 2 m/S 744 mmHg 95%
04:00 +10°C° 0.1 mm 2 m/S 744 mmHg 96%
05:00 +10°C° 1.2 mm 2 m/S 744 mmHg 96%
06:00 +10°C° 1.2 mm 2 m/S 744 mmHg 96%
07:00 +10°C° 1.2 mm 3 m/S 744 mmHg 96%
08:00 +11°C° 0.1 mm 3 m/S 744 mmHg 93%
09:00 +11°C° 0.1 mm 3 m/S 745 mmHg 90%
10:00 +11°C° 0.1 mm 4 m/S 745 mmHg 87%
11:00 +13°C° 0 mm 4 m/S 745 mmHg 79%
12:00 +14°C° 0 mm 4 m/S 745 mmHg 71%
13:00 +15°C° 0 mm 4 m/S 745 mmHg 64%
14:00 +15°C° 0 mm 4 m/S 745 mmHg 62%
15:00 +17°C° 0 mm 4 m/S 744 mmHg 60%
16:00 +17°C° 0 mm 4 m/S 744 mmHg 58%
17:00 +16°C° 0 mm 3 m/S 744 mmHg 64%
18:00 +14°C° 0 mm 3 m/S 744 mmHg 70%
19:00 +13°C° 0 mm 3 m/S 744 mmHg 76%
20:00 +12°C° 0 mm 3 m/S 744 mmHg 79%
21:00 +11°C° 0 mm 3 m/S 744 mmHg 81%
22:00 +10°C° 0 mm 3 m/S 744 mmHg 83%
23:00 +9°C° 0.1 mm 3 m/S 744 mmHg 86%

17 Mai, Montag

Zeit Temperatur Niederschläge Wind Luftdruck Luftfeuchtigkeit
00:00 +9°C° 0.1 mm 3 m/S 744 mmHg 90%
01:00 +9°C° 0.1 mm 3 m/S 744 mmHg 93%
02:00 +8°C° 0 mm 3 m/S 744 mmHg 94%
03:00 +8°C° 0 mm 3 m/S 744 mmHg 94%
04:00 +8°C° 0 mm 3 m/S 744 mmHg 95%
05:00 +9°C° 0 mm 3 m/S 744 mmHg 91%
06:00 +10°C° 0 mm 3 m/S 744 mmHg 87%
07:00 +12°C° 0 mm 3 m/S 744 mmHg 83%
08:00 +13°C° 0.1 mm 3 m/S 744 mmHg 78%
09:00 +14°C° 0.1 mm 4 m/S 744 mmHg 72%
10:00 +15°C° 0.1 mm 4 m/S 744 mmHg 67%
11:00 +15°C° 0.6 mm 5 m/S 744 mmHg 67%
12:00 +15°C° 0.6 mm 5 m/S 744 mmHg 68%
13:00 +16°C° 0.6 mm 6 m/S 744 mmHg 69%
14:00 +15°C° 0.4 mm 6 m/S 744 mmHg 70%
15:00 +15°C° 0.4 mm 6 m/S 744 mmHg 72%
16:00 +15°C° 0.4 mm 6 m/S 744 mmHg 73%
17:00 +14°C° 0.1 mm 5 m/S 744 mmHg 76%
18:00 +13°C° 0.1 mm 5 m/S 745 mmHg 79%
19:00 +12°C° 0.1 mm 4 m/S 745 mmHg 81%
20:00 +11°C° 0 mm 4 m/S 745 mmHg 85%
21:00 +10°C° 0 mm 4 m/S 745 mmHg 89%
22:00 +9°C° 0 mm 3 m/S 745 mmHg 92%
23:00 +8°C° 0 mm 3 m/S 745 mmHg 93%

18 Mai, Dienstag

Zeit Temperatur Niederschläge Wind Luftdruck Luftfeuchtigkeit
00:00 +7°C° 0 mm 4 m/S 745 mmHg 94%
01:00 +7°C° 0 mm 4 m/S 745 mmHg 95%
02:00 +6°C° 0 mm 4 m/S 745 mmHg 95%
03:00 +7°C° 0 mm 3 m/S 745 mmHg 95%
04:00 +5°C° 0 mm 3 m/S 745 mmHg 96%
05:00 +7°C° 0 mm 3 m/S 746 mmHg 93%
06:00 +8°C° 0 mm 3 m/S 746 mmHg 90%
07:00 +10°C° 0 mm 3 m/S 746 mmHg 87%
08:00 +10°C° 0 mm 4 m/S 746 mmHg 85%
09:00 +11°C° 0 mm 4 m/S 747 mmHg 82%
10:00 +12°C° 0 mm 5 m/S 747 mmHg 80%
11:00 +12°C° 0.2 mm 5 m/S 747 mmHg 77%
12:00 +13°C° 0.2 mm 4 m/S 747 mmHg 74%
13:00 +14°C° 0.2 mm 4 m/S 746 mmHg 71%
14:00 +14°C° 0.7 mm 4 m/S 747 mmHg 73%
15:00 +14°C° 0.7 mm 5 m/S 747 mmHg 76%
16:00 +13°C° 0.7 mm 5 m/S 747 mmHg 79%
17:00 +13°C° 0.4 mm 5 m/S 747 mmHg 82%
18:00 +12°C° 0.4 mm 4 m/S 747 mmHg 85%
19:00 +11°C° 0.4 mm 4 m/S 747 mmHg 88%
20:00 +10°C° 0 mm 4 m/S 747 mmHg 90%
21:00 +9°C° 0 mm 3 m/S 748 mmHg 92%
22:00 +8°C° 0 mm 3 m/S 748 mmHg 94%
23:00 +7°C° 0 mm 3 m/S 748 mmHg 94%

19 Mai, Mittwoch

Zeit Temperatur Niederschläge Wind Luftdruck Luftfeuchtigkeit
00:00 +7°C° 0 mm 3 m/S 748 mmHg 95%
01:00 +7°C° 0 mm 3 m/S 748 mmHg 95%
02:00 +5°C° 0 mm 3 m/S 748 mmHg 96%
03:00 +5°C° 0 mm 3 m/S 748 mmHg 96%
04:00 +5°C° 0 mm 3 m/S 748 mmHg 96%
05:00 +6°C° 0 mm 4 m/S 749 mmHg 94%
06:00 +7°C° 0 mm 5 m/S 749 mmHg 92%
07:00 +7°C° 0 mm 5 m/S 750 mmHg 91%
08:00 +8°C° 0.1 mm 5 m/S 750 mmHg 88%
09:00 +8°C° 0.1 mm 5 m/S 750 mmHg 86%
10:00 +9°C° 0.1 mm 6 m/S 750 mmHg 84%
11:00 +9°C° 0.2 mm 5 m/S 751 mmHg 81%
12:00 +10°C° 0.2 mm 5 m/S 751 mmHg 77%
13:00 +12°C° 0.2 mm 5 m/S 751 mmHg 73%
14:00 +12°C° 0.3 mm 5 m/S 751 mmHg 72%
15:00 +13°C° 0.3 mm 5 m/S 751 mmHg 72%
16:00 +13°C° 0.3 mm 5 m/S 751 mmHg 71%
17:00 +12°C° 0.2 mm 4 m/S 752 mmHg 75%
18:00 +11°C° 0.2 mm 3 m/S 752 mmHg 79%
19:00 +10°C° 0.2 mm 3 m/S 752 mmHg 84%
20:00 +9°C° 0 mm 3 m/S 752 mmHg 86%
21:00 +8°C° 0 mm 3 m/S 753 mmHg 89%
22:00 +7°C° 0 mm 3 m/S 753 mmHg 92%
23:00 +7°C° 0 mm 3 m/S 753 mmHg 93%
Mehr zeigen

Wir brauchen deine Erlaubnis

Meteoprog und unser Service Anbieter werden persönliche Daten aufbewahren, so wie Cookies, Geräte Bezeichnung oder ähnliche Technologien von deinem Gerät und Prozess, so wie Persönliche Daten Inhalte und Werbungen, genauso wie social Media und den Verkehr zu analysieren.

  • Aufbewahrung und/oder Zugang zu deiner Geräte Informationen.

    Cookies, Geräte Bezeichnung oder andere Informationen, können aufbewahrt oder Zugang zu deinem Gerät erhalten, für den Grund, der oben angegeben wird.

  • Personalisierte Werbung und Inhalte, Messungen, Einblick in das Publikum und Produkt Entwicklung.

    Werbungen und Inhalte können personalisiert werden, basierend auf ein Profil. Mehr Daten können besser personalisierte Werbungen und Inhalte hinzufügen. Werbung und Inhalte können gezeigt und gemessen werden. Einblicke über das Publikum, welche die Werbung gesehen haben und den Inhalt, können abgeleitet werden. So wie Daten können genutzt werden, um es zu verbessern oder die Benutzer Erfahrung zu verbessern das System und die Software.

Wenn du “Ich stimme zu” klickst, erlaubst du uns, die Cookies zu benutzen die Geräte Bezeichnung, den Web oder ähnliche Technologien zu benutzen. Deine Settings, können in deinem Gerät bei deinem Browser geändert werden.

Für den bestimmten Zweck, berechtigten Interessen beruhen darauf, mehr als auf den Inhalt. Du kannst mehr darüber in unseren Privaten und Cookie Politik lesen.